YAOGAN-30 AE

Satellite information

Favourite Embed

Satellite Type and Status

PAYLOADIN ORBIT

Key statistics

Satellite YAOGAN-30 AE at a glance.

Uptime

1450

Days in orbit

Revolutions

≈ 15.0

Per day

Orbit

LEO

Low Earth Orbit

Inclination

35.0

Latest

Satellite identification and parameters

Extended collection of information and parameters for YAOGAN-30 AE.

Object identification

Identified? True

Debris? False

Object name: YAOGAN-30 AE

International designator: 2021-065C

Object number (NORAD): 49028

Object ID (CCSDS): 49028

Country: PEOPLES REPUBLIC OF CHINA (PRC)

Current information (Y/N): Y

RCS size: LARGE

Orbital parameters

Period: 95.99 minutes

Inclination: 34.992 deg

SMA: 6944.546 km

Apoapsis: 567.156 km

Periapsis: 565.667 km

RAAN: 208.3869 deg

Eccentricy: 0.0001072

Argument of periapsis: 274.8522 deg

Mean anomaly: 85.2063 deg

Mean motion: 15.00157766 rev/day

Mean motion (dot): 0.00001611 rev/day2

B* drag term: 0.00012874 1/REarth

Two-line elements (TLE)

Creation date: July 8, 2025, 2:27 a.m.

Reference frame: TEME

Reference center: EARTH

Epoch: July 7, 2025, 5:37 p.m. UTC

TLE line 0: 0 YAOGAN-30 AE

TLE line 1: 1 49028U 21065C 25188.73470509 .00001611 00000-0 12874-3 0 9990

TLE line 2: 2 49028 34.9920 208.3869 0001072 274.8522 85.2063 15.00157766216829

Live tracking on map

Real-time ground track for satellite YAOGAN-30 AE.

In-orbit conjunctions

There are no conjunctions computed for YAOGAN-30 AE, at the moment. Check back to stay up to date, as we update our databases every day.

Go to all conjunctions

Associated space launch

NOTE: Payload identity not confirmed. The Yaogan-30 is a series of military remote sensing satellites which are launched in triplets. The satellites are spaced by 120° in their orbit.

YAOGAN-30 AE was lifted into orbit during the mission ‘Long March 2C | Yaogan-30-10’, on board a Long March 2 space rocket.

The launch took place on July 19, 2021, 12:19 a.m. from Launch Complex 3 (LC-3/LA-1).

For more information about the launch, click the button.

Launch to space Long March 2C | Yaogan-30-10
Long March 2C | Yaogan-30-10

Agency: N/A

Status: Launch Successful

Launch date: July 19, 2021, 12:19 a.m. UTC

Rocket: Long March 2

Launch pad: Launch Complex 3 (LC-3/LA-1)

Location: Xichang Satellite Launch Center, People's Republic of China

...

Latest news about this satellite

News about space launch
China tests fairing recovery technologies on Long March 2C launch with four satellites

The China Aerospace Science and Technology Corporation (CASC) launched a Long March/Chang Zheng 2C rocket on July 19 at 00:19 UTC (8:19 AM Beijing time) from LC-3 at the Xichang Satellite Launch Center. The launch carried three Yaogan-30 remote sensing sa...

News about space launch
China launches three more Yaogan spysats

China launched another trio of Yaogan 30 military spy satellites July 19, bringing to 30 the number of similar Chinese spacecraft shot into orbit since 2017 on suspected naval surveillance missions.


Newsletter sign-up

Weekly statistics, charts and insights to help you stay on top of the space industry.